• en Suisse
  • Liste des pays
  • À 7 jours
  • Température de l'eau
  • Carte satellitaire
  • Carte météo
  • Widgets météo
  • user-avatar
    Se connecter

    Météo par heure à Lyubyacha

    Ce jour, 25 Septembre, Mardi

    Heure Température Précipitation Vent Pression Humidité
    00:00 +6°C° 0 mm 5 m/s 741 mmHg 88%
    01:00 +5°C° 0 mm 5 m/s 741 mmHg 89%
    02:00 +5°C° 0 mm 5 m/s 742 mmHg 89%
    03:00 +5°C° 0 mm 5 m/s 743 mmHg 89%
    04:00 +3°C° 0 mm 5 m/s 743 mmHg 89%
    05:00 +3°C° 0 mm 5 m/s 744 mmHg 90%
    06:00 +3°C° 0 mm 6 m/s 744 mmHg 87%
    07:00 +4°C° 0 mm 6 m/s 745 mmHg 84%
    08:00 +4°C° 0 mm 6 m/s 746 mmHg 80%
    09:00 +5°C° 0 mm 7 m/s 746 mmHg 74%
    10:00 +6°C° 0 mm 7 m/s 747 mmHg 68%
    11:00 +8°C° 0 mm 7 m/s 747 mmHg 61%
    12:00 +8°C° 0.1 mm 7 m/s 748 mmHg 59%
    13:00 +9°C° 0.1 mm 7 m/s 748 mmHg 57%
    14:00 +9°C° 0.1 mm 7 m/s 748 mmHg 56%
    15:00 +8°C° 0.1 mm 6 m/s 749 mmHg 59%
    16:00 +8°C° 0.1 mm 6 m/s 749 mmHg 62%
    17:00 +7°C° 0.1 mm 5 m/s 750 mmHg 65%
    18:00 +7°C° 0 mm 5 m/s 750 mmHg 66%
    19:00 +6°C° 0 mm 5 m/s 751 mmHg 68%
    20:00 +5°C° 0 mm 4 m/s 752 mmHg 69%
    21:00 +4°C° 0 mm 4 m/s 752 mmHg 68%
    22:00 +4°C° 0 mm 4 m/s 753 mmHg 68%
    23:00 +3°C° 0 mm 4 m/s 754 mmHg 68%

    Demain, 26 Septembre, Mercredi

    Heure Température Précipitation Vent Pression Humidité
    00:00 +3°C° 0 mm 4 m/s 754 mmHg 72%
    01:00 +1°C° 0 mm 4 m/s 755 mmHg 76%
    02:00 +1°C° 0 mm 4 m/s 755 mmHg 80%
    03:00 +2°C° 0 mm 3 m/s 756 mmHg 83%
    04:00 +2°C° 0 mm 3 m/s 756 mmHg 87%
    05:00 +2°C° 0 mm 3 m/s 756 mmHg 91%
    06:00 +2°C° 0 mm 3 m/s 757 mmHg 86%
    07:00 +3°C° 0 mm 3 m/s 757 mmHg 82%
    08:00 +4°C° 0 mm 4 m/s 757 mmHg 78%
    09:00 +6°C° 0 mm 4 m/s 757 mmHg 70%
    10:00 +7°C° 0 mm 4 m/s 757 mmHg 62%
    11:00 +10°C° 0 mm 4 m/s 757 mmHg 54%
    12:00 +10°C° 0 mm 5 m/s 756 mmHg 53%
    13:00 +10°C° 0 mm 5 m/s 756 mmHg 52%
    14:00 +10°C° 0 mm 5 m/s 755 mmHg 50%
    15:00 +10°C° 0 mm 5 m/s 755 mmHg 54%
    16:00 +9°C° 0 mm 5 m/s 754 mmHg 58%
    17:00 +10°C° 0 mm 4 m/s 754 mmHg 62%
    18:00 +8°C° 0.1 mm 5 m/s 753 mmHg 65%
    19:00 +8°C° 0.1 mm 5 m/s 753 mmHg 67%
    20:00 +7°C° 0.1 mm 6 m/s 752 mmHg 70%
    21:00 +7°C° 0.1 mm 6 m/s 752 mmHg 73%
    22:00 +6°C° 0.1 mm 7 m/s 751 mmHg 75%
    23:00 +6°C° 0.1 mm 7 m/s 750 mmHg 78%

    Après-demain, 27 Septembre, Jeudi

    Heure Température Précipitation Vent Pression Humidité
    00:00 +6°C° 0.3 mm 7 m/s 749 mmHg 80%
    01:00 +6°C° 0.3 mm 8 m/s 749 mmHg 81%
    02:00 +6°C° 0.3 mm 8 m/s 748 mmHg 83%
    03:00 +6°C° 0.4 mm 8 m/s 747 mmHg 85%
    04:00 +6°C° 0.4 mm 8 m/s 746 mmHg 86%
    05:00 +6°C° 0.4 mm 8 m/s 746 mmHg 88%
    06:00 +6°C° 0.2 mm 8 m/s 746 mmHg 88%
    07:00 +7°C° 0.2 mm 8 m/s 745 mmHg 88%
    08:00 +8°C° 0.2 mm 7 m/s 745 mmHg 88%
    09:00 +9°C° 0.1 mm 7 m/s 745 mmHg 88%
    10:00 +9°C° 0.1 mm 7 m/s 745 mmHg 88%
    11:00 +10°C° 0.1 mm 7 m/s 746 mmHg 88%
    12:00 +11°C° 0.1 mm 6 m/s 746 mmHg 88%
    13:00 +11°C° 0.1 mm 6 m/s 746 mmHg 87%
    14:00 +13°C° 0.1 mm 6 m/s 746 mmHg 87%
    15:00 +13°C° 0.1 mm 6 m/s 746 mmHg 87%
    16:00 +14°C° 0.1 mm 6 m/s 746 mmHg 88%
    17:00 +14°C° 0.1 mm 6 m/s 746 mmHg 88%
    18:00 +13°C° 0.1 mm 6 m/s 746 mmHg 89%
    19:00 +13°C° 0.1 mm 5 m/s 747 mmHg 90%
    20:00 +13°C° 0.1 mm 5 m/s 747 mmHg 91%
    21:00 +12°C° 0 mm 5 m/s 747 mmHg 93%
    22:00 +12°C° 0 mm 4 m/s 747 mmHg 94%
    23:00 +12°C° 0 mm 4 m/s 747 mmHg 95%

    28 Septembre, Vendredi

    Heure Température Précipitation Vent Pression Humidité
    00:00 +12°C° 0 mm 5 m/s 746 mmHg 94%
    01:00 +12°C° 0 mm 5 m/s 746 mmHg 94%
    02:00 +12°C° 0 mm 5 m/s 746 mmHg 93%
    03:00 +12°C° 0 mm 5 m/s 745 mmHg 92%
    04:00 +11°C° 0 mm 6 m/s 745 mmHg 92%
    05:00 +11°C° 0 mm 6 m/s 744 mmHg 91%
    06:00 +11°C° 0 mm 7 m/s 744 mmHg 90%
    07:00 +12°C° 0 mm 7 m/s 743 mmHg 89%
    08:00 +12°C° 0 mm 7 m/s 743 mmHg 89%
    09:00 +12°C° 0.2 mm 7 m/s 743 mmHg 88%
    10:00 +12°C° 0.2 mm 7 m/s 743 mmHg 88%
    11:00 +14°C° 0.2 mm 7 m/s 743 mmHg 87%
    12:00 +14°C° 0.2 mm 7 m/s 743 mmHg 82%
    13:00 +14°C° 0.2 mm 7 m/s 743 mmHg 76%
    14:00 +15°C° 0.2 mm 7 m/s 744 mmHg 70%
    15:00 +14°C° 0 mm 6 m/s 744 mmHg 70%
    16:00 +13°C° 0 mm 5 m/s 745 mmHg 70%
    17:00 +13°C° 0 mm 4 m/s 745 mmHg 70%
    18:00 +11°C° 0 mm 3 m/s 746 mmHg 75%
    19:00 +10°C° 0 mm 2 m/s 746 mmHg 80%
    20:00 +8°C° 0 mm 2 m/s 747 mmHg 84%
    21:00 +8°C° 0 mm 1 m/s 747 mmHg 86%
    22:00 +8°C° 0 mm 1 m/s 747 mmHg 87%
    23:00 +7°C° 0 mm 1 m/s 747 mmHg 88%

    29 Septembre, Samedi

    Heure Température Précipitation Vent Pression Humidité
    00:00 +7°C° 0 mm 1 m/s 747 mmHg 89%
    01:00 +7°C° 0 mm 1 m/s 747 mmHg 89%
    02:00 +6°C° 0 mm 1 m/s 747 mmHg 89%
    03:00 +7°C° 0 mm 1 m/s 747 mmHg 88%
    04:00 +7°C° 0 mm 1 m/s 747 mmHg 88%
    05:00 +7°C° 0 mm 1 m/s 747 mmHg 87%
    06:00 +8°C° 0 mm 1 m/s 747 mmHg 86%
    07:00 +8°C° 0 mm 1 m/s 748 mmHg 85%
    08:00 +9°C° 0 mm 1 m/s 748 mmHg 85%
    09:00 +9°C° 0.1 mm 1 m/s 748 mmHg 81%
    10:00 +9°C° 0.1 mm 2 m/s 748 mmHg 78%
    11:00 +10°C° 0.1 mm 2 m/s 749 mmHg 74%
    12:00 +12°C° 0.1 mm 2 m/s 749 mmHg 71%
    13:00 +11°C° 0.1 mm 3 m/s 749 mmHg 69%
    14:00 +11°C° 0.1 mm 3 m/s 749 mmHg 66%
    15:00 +11°C° 0.1 mm 3 m/s 749 mmHg 68%
    16:00 +10°C° 0.1 mm 3 m/s 749 mmHg 70%
    17:00 +9°C° 0.1 mm 3 m/s 750 mmHg 73%
    18:00 +8°C° 0 mm 3 m/s 750 mmHg 76%
    19:00 +7°C° 0 mm 2 m/s 751 mmHg 79%
    20:00 +5°C° 0 mm 2 m/s 751 mmHg 83%
    21:00 +5°C° 0 mm 2 m/s 751 mmHg 83%
    22:00 +4°C° 0 mm 2 m/s 751 mmHg 83%
    23:00 +4°C° 0 mm 2 m/s 752 mmHg 83%

    30 Septembre, Dimanche

    Heure Température Précipitation Vent Pression Humidité
    00:00 +4°C° 0 mm 2 m/s 752 mmHg 83%
    01:00 +4°C° 0 mm 1 m/s 752 mmHg 84%
    02:00 +4°C° 0 mm 1 m/s 752 mmHg 84%
    03:00 +4°C° 0 mm 1 m/s 752 mmHg 85%
    04:00 +4°C° 0 mm 1 m/s 752 mmHg 87%
    05:00 +3°C° 0 mm 1 m/s 751 mmHg 88%
    06:00 +4°C° 0 mm 1 m/s 751 mmHg 86%
    07:00 +5°C° 0 mm 1 m/s 751 mmHg 84%
    08:00 +6°C° 0 mm 1 m/s 751 mmHg 82%
    09:00 +7°C° 0 mm 1 m/s 751 mmHg 77%
    10:00 +8°C° 0 mm 2 m/s 751 mmHg 71%
    11:00 +10°C° 0 mm 2 m/s 751 mmHg 66%
    12:00 +12°C° 0 mm 2 m/s 750 mmHg 63%
    13:00 +11°C° 0 mm 3 m/s 749 mmHg 61%
    14:00 +12°C° 0 mm 3 m/s 749 mmHg 58%
    15:00 +12°C° 0 mm 2 m/s 748 mmHg 62%
    16:00 +12°C° 0 mm 2 m/s 748 mmHg 65%
    17:00 +10°C° 0 mm 2 m/s 747 mmHg 68%
    18:00 +9°C° 0 mm 2 m/s 747 mmHg 71%
    19:00 +8°C° 0 mm 2 m/s 747 mmHg 73%
    20:00 +7°C° 0 mm 2 m/s 747 mmHg 76%
    21:00 +7°C° 0 mm 2 m/s 747 mmHg 76%
    22:00 +7°C° 0 mm 2 m/s 746 mmHg 77%
    23:00 +6°C° 0 mm 2 m/s 746 mmHg 77%
    Voir plus